Tracking 27419 objects as of 9-Jun-2023
HD Live streaming from Space Station
objects crossing your sky now

DELTA 1 DEB

Track DELTA 1 DEB now!
10-day predictions


NORAD ID: 7044
Int'l Code: 1973-086AL
Perigee: 1,424.1 km
Apogee: 1,565.9 km
Inclination: 102.6 °
Period: 115.7 minutes
Semi major axis: 7865 km
RCS: 0.2084 m2 (medium)
Launch date: November 6, 1973
Source: United States (US)
Launch site: AIR FORCE WESTERN TEST RANGE (AFWTR)

Note: This is SATELLITE DEBRIS
Your satellite tracking list
Your tracking list is empty




NASA's NSSDC Master Catalog

Two Line Element Set (TLE):
1  7044U 73086AL  23159.98425770 -.00000012  00000-0  25481-3 0  9998
2  7044 102.5751 333.0127 0090078 110.2322  14.0644 12.44435530252146
Source of the keplerian elements: AFSPC